| time (UTC) | temp F | wind direction | speed MPH | gust MPH | rain 1hr in | rain 24hr in | rain mn in | humidity % | barometer mb |
| 20260504001548 | 63 | 177 | 0.0 | 3.0 | 0.00 | 0.00 | 0.00 | 45 | 1015.3 |
| 20260504000054 | 64 | 143 | 1.0 | 3.0 | 0.00 | 0.00 | 0.00 | 44 | 1015.1 |
| 20260503234550 | 65 | 178 | 2.0 | 7.0 | 0.00 | 0.00 | 0.00 | 42 | 1015.1 |
| 20260503233046 | 66 | 227 | 3.0 | 7.0 | 0.00 | 0.00 | 0.00 | 41 | 1015.1 |
| 20260503231551 | 66 | 173 | 4.0 | 10.0 | 0.00 | 0.00 | 0.00 | 40 | 1015.3 |
| 20260503230048 | 67 | 196 | 2.0 | 9.0 | 0.00 | 0.00 | 0.00 | 42 | 1015.2 |
| 20260503224546 | 67 | 290 | 3.0 | 7.0 | 0.00 | 0.00 | 0.00 | 37 | 1015.3 |
| 20260503223049 | 68 | 263 | 2.0 | 7.0 | 0.00 | 0.00 | 0.00 | 37 | 1015.4 |
| 20260503221550 | 69 | 203 | 2.0 | 5.0 | 0.00 | 0.00 | 0.00 | 36 | 1015.4 |
| 20260503220056 | 69 | 185 | 4.0 | 9.0 | 0.00 | 0.00 | 0.00 | 40 | 1015.4 |
| 20260503214549 | 69 | 192 | 4.0 | 11.0 | 0.00 | 0.00 | 0.00 | 38 | 1015.6 |
| 20260503213057 | 69 | 256 | 3.0 | 10.0 | 0.00 | 0.00 | 0.00 | 35 | 1015.7 |
| 20260503211553 | 69 | 202 | 3.0 | 10.0 | 0.00 | 0.00 | 0.00 | 39 | 1015.8 |
| 20260503210058 | 68 | 261 | 3.0 | 13.0 | 0.00 | 0.00 | 0.00 | 37 | 1015.7 |
| 20260503204550 | 68 | 271 | 5.0 | 9.0 | 0.00 | 0.00 | 0.00 | 38 | 1016.0 |
| 20260503203101 | 68 | 144 | 2.0 | 9.0 | 0.00 | 0.00 | 0.00 | 40 | 1016.2 |
| 20260503201550 | 68 | 296 | 1.0 | 11.0 | 0.00 | 0.00 | 0.00 | 38 | 1016.6 |
| 20260503200056 | 67 | 188 | 3.0 | 9.0 | 0.00 | 0.00 | 0.00 | 36 | 1017.0 |
| 20260503194549 | 68 | 181 | 2.0 | 9.0 | 0.00 | 0.00 | 0.00 | 39 | 1017.1 |
| 20260503193053 | 67 | 210 | 3.0 | 10.0 | 0.00 | 0.00 | 0.00 | 35 | 1017.2 |
| 20260503191601 | 67 | 176 | 2.0 | 8.0 | 0.00 | 0.00 | 0.00 | 35 | 1017.2 |
| 20260503190056 | 66 | 184 | 4.0 | 10.0 | 0.00 | 0.00 | 0.00 | 37 | 1017.5 |
| 20260503184606 | 66 | 277 | 4.0 | 9.0 | 0.00 | 0.00 | 0.00 | 35 | 1017.7 |
| 20260503183057 | 66 | 146 | 3.0 | 9.0 | 0.00 | 0.00 | 0.00 | 41 | 1017.8 |
| 20260503181606 | 66 | 95 | 2.0 | 6.0 | 0.00 | 0.00 | 0.00 | 37 | 1018.0 |
| 20260503180053 | 65 | 286 | 3.0 | 7.0 | 0.00 | 0.00 | 0.00 | 41 | 1018.2 |
| 20260503174548 | 64 | 283 | 1.0 | 7.0 | 0.00 | 0.00 | 0.00 | 43 | 1018.2 |
| 20260503173059 | 63 | 202 | 3.0 | 10.0 | 0.00 | 0.00 | 0.00 | 39 | 1018.4 |
| 20260503171550 | 63 | 225 | 5.0 | 10.0 | 0.00 | 0.00 | 0.00 | 40 | 1018.8 |
| 20260503081615 | 40 | 0 | 0.0 | 2.0 | 0.00 | 0.00 | 0.00 | 89 | 1016.9 |
| 20260503080103 | 40 | 292 | 0.0 | 2.0 | 0.00 | 0.00 | 0.00 | 88 | 1016.8 |
| 20260503071544 | 42 | 292 | 0.0 | 2.0 | 0.00 | 0.00 | 0.00 | 87 | 1016.6 |
| 20260503054553 | 42 | 255 | 1.0 | 2.0 | 0.00 | 0.00 | 0.00 | 85 | 1016.2 |
| 20260503053054 | 42 | 0 | 0.0 | 2.0 | 0.00 | 0.00 | 0.00 | 85 | 1016.2 |
| 20260503051552 | 43 | 281 | 0.0 | 2.0 | 0.00 | 0.00 | 0.00 | 85 | 1016.2 |
| 20260503050054 | 44 | 0 | 0.0 | 0.0 | 0.00 | 0.00 | 0.00 | 83 | 1016.0 |
| 20260503044554 | 45 | 0 | 0.0 | 0.0 | 0.00 | 0.00 | 0.00 | 81 | 1015.9 |
| 20260503043045 | 45 | 0 | 0.0 | 0.0 | 0.00 | 0.00 | 0.00 | 80 | 1016.1 |
| 20260503041553 | 46 | 0 | 0.0 | 0.0 | 0.00 | 0.00 | 0.00 | 79 | 1016.1 |
| 20260503040054 | 46 | 0 | 0.0 | 0.0 | 0.00 | 0.00 | 0.00 | 77 | 1015.9 |
| 20260503034554 | 47 | 0 | 0.0 | 0.0 | 0.00 | 0.00 | 0.00 | 73 | 1015.7 |
| 20260503033114 | 48 | 0 | 0.0 | 0.0 | 0.00 | 0.00 | 0.00 | 72 | 1015.6 |
| 20260503031556 | 49 | 0 | 0.0 | 2.0 | 0.00 | 0.00 | 0.00 | 70 | 1015.4 |
| 20260503030104 | 50 | 331 | 0.0 | 2.0 | 0.00 | 0.00 | 0.00 | 66 | 1015.2 |
| 20260503024621 | 51 | 331 | 0.0 | 2.0 | 0.00 | 0.00 | 0.00 | 64 | 1015.2 |
| 20260503023100 | 52 | 0 | 1.0 | 2.0 | 0.00 | 0.00 | 0.00 | 63 | 1014.9 |
| 20260503021558 | 52 | 331 | 0.0 | 2.0 | 0.00 | 0.00 | 0.00 | 65 | 1014.8 |
| 20260503020050 | 53 | 18 | 0.0 | 2.0 | 0.00 | 0.00 | 0.00 | 61 | 1014.6 |
| 20260503014549 | 54 | 0 | 0.0 | 2.0 | 0.00 | 0.00 | 0.00 | 58 | 1014.2 |
| 20260503013054 | 55 | 18 | 1.0 | 1.0 | 0.00 | 0.00 | 0.00 | 49 | 1013.9 |
| 20260503011556 | 56 | 16 | 1.0 | 1.0 | 0.00 | 0.00 | 0.00 | 51 | 1013.5 |
| 20260503010054 | 57 | 25 | 1.0 | 2.0 | 0.00 | 0.00 | 0.00 | 46 | 1013.4 |
| 20260503004548 | 57 | 15 | 1.0 | 2.0 | 0.00 | 0.00 | 0.00 | 46 | 1013.1 |
| 20260503003054 | 58 | 15 | 1.0 | 3.0 | 0.00 | 0.00 | 0.00 | 44 | 1012.8 |